This demonstration page uses our WeatherBlox Daily Observations layout. Learn more.

Left ArrowRight Arrow

39.08367, -84.50855

Hourly Observations for September 6, 2017

Temp ( °F °C ) Dew Point ( °F °C ) Humidity (%) Winds ( mph kmh ) Pressure ( in mb ) Visibility ( mi km ) Precip ( " mm )
12:53 am 00:53 Clear 54 12.2 52 11.1 93 93 N N/A 29.94 1014 10 16 N/A
1:53 am 01:53 Clear 52 11.1 52 11.1 100 100 N N/A 29.94 1014 10 16 N/A
2:53 am 02:53 Clear 52 11.1 51 10.6 97 97 N N/A 29.94 1014 10 16 N/A
3:53 am 03:53 Clear with Mist and Fog 50 10 50 10 100 100 N N/A 29.94 1014 6 10 N/A
4:01 am 04:01 Clear with Mist and Fog 49 9.4 49 9.4 100 100 N N/A 29.94 1014 1 2 N/A
4:17 am 04:17 Clear 50 10 50 10 100 100 N N/A 29.94 1014 8 13 N/A
4:31 am 04:31 Clear with Mist and Fog 50 10 50 10 100 100 N N/A 29.94 1014 1 2 N/A
4:38 am 04:38 Clear with Fog 49 9.4 49 9.4 100 100 N N/A 29.94 1014 1 1 N/A
4:43 am 04:43 Clear with Mist and Fog 49 9.4 49 9.4 100 100 N N/A 29.94 1014 2 3 N/A
4:50 am 04:50 Clear with Mist and Fog 48 9 48 9 100 100 NE 3 6 29.94 1014 3 5 N/A
4:53 am 04:53 Clear with Mist and Fog 49 9.4 49 9.4 100 100 N N/A 29.95 1014 5 8 N/A
5:42 am 05:42 Clear with Mist and Fog 49 9.4 49 9.4 100 100 N N/A 29.94 1014 2 3 N/A
5:47 am 05:47 Clear with Mist and Fog 48 9 48 9 100 100 N N/A 29.94 1014 3 5 N/A
5:53 am 05:53 Clear 50 10 50 10 100 100 N N/A 29.94 1014 7 11 N/A
6:19 am 06:19 Clear with Mist and Fog 48 8.9 48 8.9 100 100 N N/A 29.94 1014 2 3 N/A
6:28 am 06:28 Mostly Clear with Mist and Fog 50 10 49 9.4 96 96 N N/A 29.94 1014 3 4 N/A
6:35 am 06:35 Mostly Clear 50 10 50 10 100 100 N N/A 29.94 1014 8 13 N/A
6:53 am 06:53 Clear 50 10 50 10 100 100 N 3 6 29.95 1014 10 16 N/A
7:53 am 07:53 Sunny 50 10 50 10 100 100 N N/A 29.96 1015 10 16 N/A
8:53 am 08:53 Sunny 57 13.9 55 12.8 93 93 N N/A 29.97 1015 10 16 N/A
9:53 am 09:53 Sunny 62 16.7 52 11.1 70 70 NW 6 9 29.97 1015 10 16 N/A
10:53 am 10:53 Mostly Sunny 65 18.3 49 9.4 56 56 W 9 15 29.98 1015 10 16 N/A
11:53 am 11:53 Mostly Sunny 67 19.4 47 8.3 49 49 W 10 17 29.98 1015 10 16 N/A
12:53 pm 12:53 Partly Cloudy 69 20.6 46 7.8 44 44 WNW 12 19 29.98 1015 10 16 N/A
1:53 pm 13:53 Mostly Cloudy 65 18.3 45 7.2 49 49 WNW 9 15 29.98 1015 10 16 N/A
2:53 pm 14:53 Cloudy 67 19.4 46 7.8 47 47 WNW 10 17 29.97 1015 10 16 N/A
3:53 pm 15:53 Mostly Cloudy 69 20.6 47 8.3 45 45 W 9 15 29.96 1015 10 16 N/A
4:53 pm 16:53 Mostly Cloudy 67 19.4 45 7.2 45 45 W 8 13 29.96 1015 10 16 N/A
5:53 pm 17:53 Cloudy 65 18.3 47 8.3 52 52 WNW 10 17 29.96 1015 10 16 N/A
6:53 pm 18:53 Mostly Sunny 64 17.8 47 8.3 54 54 WSW 12 19 29.97 1015 10 16 N/A
7:53 pm 19:53 Mostly Cloudy 63 17.2 47 8.3 56 56 W 12 19 29.98 1015 10 16 N/A
8:53 pm 20:53 Cloudy 62 16.7 48 8.9 60 60 W 14 22 30.00 1016 10 16 N/A
9:53 pm 21:53 Mostly Clear 60 15.6 49 9.4 67 67 NNW 7 11 30.02 1017 10 16 N/A
10:53 pm 22:53 Partly Cloudy 58 14.4 49 9.4 72 72 NW 6 9 30.03 1017 10 16 N/A
11:53 pm 23:53 Mostly Clear 57 13.9 49 9.4 74 74 NW 6 9 30.04 1017 10 16 N/A

Powered by AerisWeather